User: anonymous   Login
Location: Cluny
(50.9333°N, 112.8167°W)
Time: 18:41:11
(UTC-07:00)
Language:

Cosmos 1743 Rocket - Orbit

View from above orbital plane
View from above orbital plane
View from above satellite
View from above satellite

Ground track
Ground track

The orbit data is extracted from the following two-line orbital elements,

1 16720U 86034B   17326.44048704  .00000120  00000-0  11717-4 0  9991
2 16720  82.5540  93.9618 0018864 301.7977 121.4702 14.83313815702721
Epoch (UTC): 22 November 2017 10:34:18
Eccentricity: 0.0018864
inclination: 82.5540°
perigee height: 605 km
apogee height: 632 km
right ascension of ascending node: 93.9618°
argument of perigee: 301.7977°
revolutions per day: 14.83313815
mean anomaly at epoch: 121.4702°
orbit number at epoch: 70272

The dashed part of the orbit path shows where the satellite is in the earth's shadow,  

DLR